Time,TemperatureF,DewpointF,PressureIn,WindDirection,WindDirectionDegrees,WindSpeedMPH,WindSpeedGustMPH,Humidity,HourlyPrecipIn,Conditions,Clouds,dailyrainin,SoftwareType,DateUTC
2013-09-07 00:05:00,67.1,47.3,29.76,NNW,346,0.0,0.0,49,0.00,,,0.00,Wunderground v.1.15,2013-09-07 07:05:00,
2013-09-07 00:15:00,67.3,46.9,29.76,NNW,345,0.0,0.0,48,0.00,,,0.00,Wunderground v.1.15,2013-09-07 07:15:00,
2013-09-07 00:20:00,67.2,47.4,29.76,NNW,345,0.0,0.0,49,0.00,,,0.00,Wunderground v.1.15,2013-09-07 07:20:00,
2013-09-07 00:25:00,66.7,46.9,29.76,NNW,346,0.0,0.0,49,0.00,,,0.00,Wunderground v.1.15,2013-09-07 07:25:00,
2013-09-07 00:30:00,66.5,46.7,29.77,NNW,345,0.0,0.0,49,0.00,,,0.00,Wunderground v.1.15,2013-09-07 07:30:00,
2013-09-07 00:35:00,66.2,47.0,29.76,NNW,345,0.0,0.0,50,0.00,,,0.00,Wunderground v.1.15,2013-09-07 07:35:00,
2013-09-07 00:45:00,65.7,47.1,29.76,NNW,345,0.0,0.0,51,0.00,,,0.00,Wunderground v.1.15,2013-09-07 07:45:00,
2013-09-07 00:50:00,65.5,47.4,29.76,NNW,345,0.0,0.0,52,0.00,,,0.00,Wunderground v.1.15,2013-09-07 07:50:00,
2013-09-07 00:55:00,65.1,47.0,29.76,NNW,345,0.0,0.0,52,0.00,,,0.00,Wunderground v.1.15,2013-09-07 07:55:00,
2013-09-07 01:00:00,64.8,47.3,29.76,NNW,345,0.0,0.0,53,0.00,,,0.00,Wunderground v.1.15,2013-09-07 08:00:00,
2013-09-07 01:05:00,64.5,47.0,29.77,NNW,345,0.0,0.0,53,0.00,,,0.00,Wunderground v.1.15,2013-09-07 08:05:00,
2013-09-07 01:15:00,64.3,47.3,29.77,NNW,345,0.0,0.0,54,0.00,,,0.00,Wunderground v.1.15,2013-09-07 08:15:00,
2013-09-07 01:20:00,64.1,47.1,29.77,NNE,16,0.0,0.0,54,0.00,,,0.00,Wunderground v.1.15,2013-09-07 08:20:00,
2013-09-07 01:25:00,64.1,46.6,29.77,NNE,16,0.0,0.0,53,0.00,,,0.00,Wunderground v.1.15,2013-09-07 08:25:00,
2013-09-07 01:35:00,64.6,47.1,29.77,NE,56,0.0,0.0,53,0.00,,,0.00,Wunderground v.1.15,2013-09-07 08:35:00,
2013-09-07 01:40:00,64.5,47.0,29.77,ESE,103,0.0,0.0,53,0.00,,,0.00,Wunderground v.1.15,2013-09-07 08:40:00,
2013-09-07 01:45:00,64.4,46.9,29.76,ESE,103,0.0,0.0,53,0.00,,,0.00,Wunderground v.1.15,2013-09-07 08:45:00,
2013-09-07 01:50:00,64.1,46.6,29.76,ESE,121,0.0,0.0,53,0.00,,,0.00,Wunderground v.1.15,2013-09-07 08:50:00,
2013-09-07 01:55:00,63.9,46.9,29.76,ENE,69,0.0,1.0,54,0.00,,,0.00,Wunderground v.1.15,2013-09-07 08:55:00,
2013-09-07 02:00:00,63.9,46.9,29.76,ENE,69,0.0,0.0,54,0.00,,,0.00,Wunderground v.1.15,2013-09-07 09:00:00,
2013-09-07 02:10:00,64.3,47.3,29.76,ESE,108,0.0,0.0,54,0.00,,,0.00,Wunderground v.1.15,2013-09-07 09:10:00,
2013-09-07 02:20:00,64.4,46.9,29.76,ESE,107,0.0,0.0,53,0.00,,,0.00,Wunderground v.1.15,2013-09-07 09:20:00,
2013-09-07 02:25:00,64.3,46.8,29.76,ESE,107,0.0,0.0,53,0.00,,,0.00,Wunderground v.1.15,2013-09-07 09:25:00,
2013-09-07 02:30:00,63.9,46.9,29.76,ESE,107,0.0,0.0,54,0.00,,,0.00,Wunderground v.1.15,2013-09-07 09:30:00,
2013-09-07 02:40:00,63.9,46.9,29.76,ESE,107,0.0,0.0,54,0.00,,,0.00,Wunderground v.1.15,2013-09-07 09:40:00,
2013-09-07 02:45:00,63.8,46.8,29.76,ESE,107,0.0,0.0,54,0.00,,,0.00,Wunderground v.1.15,2013-09-07 09:45:00,
2013-09-07 02:50:00,63.4,46.9,29.76,ESE,107,0.0,1.0,55,0.00,,,0.00,Wunderground v.1.15,2013-09-07 09:50:00,
2013-09-07 02:55:00,64.0,47.0,29.76,East,92,1.0,1.0,54,0.00,,,0.00,Wunderground v.1.15,2013-09-07 09:55:00,
2013-09-07 03:00:00,64.3,46.8,29.76,East,92,1.0,1.0,53,0.00,,,0.00,Wunderground v.1.15,2013-09-07 10:00:00,
2013-09-07 03:10:00,64.0,47.0,29.76,East,92,0.0,0.0,54,0.00,,,0.00,Wunderground v.1.15,2013-09-07 10:10:00,
2013-09-07 03:20:00,63.8,46.8,29.76,East,92,0.0,0.0,54,0.00,,,0.00,Wunderground v.1.15,2013-09-07 10:20:00,
2013-09-07 03:25:00,63.8,46.8,29.76,East,92,0.0,0.0,54,0.00,,,0.00,Wunderground v.1.15,2013-09-07 10:25:00,
2013-09-07 03:35:00,63.6,46.6,29.76,East,92,0.0,1.0,54,0.00,,,0.00,Wunderground v.1.15,2013-09-07 10:35:00,
2013-09-07 03:40:00,63.6,46.6,29.76,East,92,0.0,0.0,54,0.00,,,0.00,Wunderground v.1.15,2013-09-07 10:40:00,
2013-09-07 03:45:00,63.0,46.6,29.76,East,92,0.0,0.0,55,0.00,,,0.00,Wunderground v.1.15,2013-09-07 10:45:00,
2013-09-07 03:50:00,62.6,46.2,29.76,East,92,0.0,0.0,55,0.00,,,0.00,Wunderground v.1.15,2013-09-07 10:50:00,
2013-09-07 03:55:00,62.5,46.6,29.76,East,92,0.0,0.0,56,0.00,,,0.00,Wunderground v.1.15,2013-09-07 10:55:00,
2013-09-07 04:05:00,61.8,46.4,29.76,East,92,0.0,0.0,57,0.00,,,0.00,Wunderground v.1.15,2013-09-07 11:05:00,
2013-09-07 04:15:00,61.6,46.2,29.76,East,92,0.0,0.0,57,0.00,,,0.00,Wunderground v.1.15,2013-09-07 11:15:00,
2013-09-07 04:25:00,61.6,46.2,29.76,ENE,78,0.0,1.0,57,0.00,,,0.00,Wunderground v.1.15,2013-09-07 11:25:00,
2013-09-07 04:30:00,61.8,45.9,29.76,ESE,120,0.0,1.0,56,0.00,,,0.00,Wunderground v.1.15,2013-09-07 11:30:00,
2013-09-07 04:35:00,62.4,46.0,29.76,East,90,0.0,1.0,55,0.00,,,0.00,Wunderground v.1.15,2013-09-07 11:35:00,
2013-09-07 04:40:00,62.5,46.1,29.76,East,90,0.0,1.0,55,0.00,,,0.00,Wunderground v.1.15,2013-09-07 11:40:00,
2013-09-07 04:45:00,62.6,46.2,29.76,East,90,0.0,0.0,55,0.00,,,0.00,Wunderground v.1.15,2013-09-07 11:45:00,
2013-09-07 04:55:00,63.3,46.4,29.76,East,90,0.0,1.0,54,0.00,,,0.00,Wunderground v.1.15,2013-09-07 11:55:00,
2013-09-07 05:00:00,63.1,46.2,29.76,East,90,0.0,1.0,54,0.00,,,0.00,Wunderground v.1.15,2013-09-07 12:00:00,
2013-09-07 05:05:00,62.9,46.0,29.76,East,90,0.0,1.0,54,0.00,,,0.00,Wunderground v.1.15,2013-09-07 12:05:00,
2013-09-07 05:15:00,62.6,45.7,29.76,East,90,0.0,0.0,54,0.00,,,0.00,Wunderground v.1.15,2013-09-07 12:15:00,
2013-09-07 05:20:00,62.6,46.2,29.76,East,90,0.0,0.0,55,0.00,,,0.00,Wunderground v.1.15,2013-09-07 12:20:00,
2013-09-07 05:25:00,62.7,46.3,29.76,East,90,0.0,0.0,55,0.00,,,0.00,Wunderground v.1.15,2013-09-07 12:25:00,
2013-09-07 05:30:00,62.8,45.9,29.76,East,90,0.0,0.0,54,0.00,,,0.00,Wunderground v.1.15,2013-09-07 12:30:00,
2013-09-07 05:35:00,62.7,45.8,29.76,East,90,0.0,1.0,54,0.00,,,0.00,Wunderground v.1.15,2013-09-07 12:35:00,
2013-09-07 05:40:00,62.9,46.0,29.76,East,90,0.0,1.0,54,0.00,,,0.00,Wunderground v.1.15,2013-09-07 12:40:00,
2013-09-07 05:45:00,62.8,45.9,29.76,East,90,0.0,0.0,54,0.00,,,0.00,Wunderground v.1.15,2013-09-07 12:45:00,
2013-09-07 05:55:00,62.6,45.7,29.76,East,90,0.0,0.0,54,0.00,,,0.00,Wunderground v.1.15,2013-09-07 12:55:00,
2013-09-07 06:00:00,62.7,45.8,29.76,East,90,0.0,0.0,54,0.00,,,0.00,Wunderground v.1.15,2013-09-07 13:00:00,
2013-09-07 06:05:00,62.5,45.6,29.77,East,90,0.0,0.0,54,0.00,,,0.00,Wunderground v.1.15,2013-09-07 13:05:00,
2013-09-07 06:15:00,62.2,45.8,29.77,East,90,0.0,0.0,55,0.00,,,0.00,Wunderground v.1.15,2013-09-07 13:15:00,
2013-09-07 06:20:00,62.2,45.3,29.77,East,90,0.0,0.0,54,0.00,,,0.00,Wunderground v.1.15,2013-09-07 13:20:00,
2013-09-07 06:25:00,61.9,45.5,29.77,East,90,0.0,0.0,55,0.00,,,0.00,Wunderground v.1.15,2013-09-07 13:25:00,
2013-09-07 06:30:00,61.6,45.3,29.77,North,4,0.0,0.0,55,0.00,,,0.00,Wunderground v.1.15,2013-09-07 13:30:00,
2013-09-07 06:35:00,61.3,45.5,29.77,North,4,0.0,1.0,56,0.00,,,0.00,Wunderground v.1.15,2013-09-07 13:35:00,
2013-09-07 06:40:00,61.2,45.4,29.77,North,6,0.0,2.0,56,0.00,,,0.00,Wunderground v.1.15,2013-09-07 13:40:00,
2013-09-07 06:50:00,61.4,45.6,29.77,North,6,0.0,0.0,56,0.00,,,0.00,Wunderground v.1.15,2013-09-07 13:50:00,
2013-09-07 06:55:00,61.3,45.0,29.77,North,6,0.0,0.0,55,0.00,,,0.00,Wunderground v.1.15,2013-09-07 13:55:00,
2013-09-07 07:00:00,61.1,45.3,29.77,North,6,0.0,0.0,56,0.00,,,0.00,Wunderground v.1.15,2013-09-07 14:00:00,
2013-09-07 07:05:00,61.0,45.2,29.77,North,6,0.0,0.0,56,0.00,,,0.00,Wunderground v.1.15,2013-09-07 14:05:00,
2013-09-07 07:15:00,60.8,45.0,29.77,North,6,0.0,0.0,56,0.00,,,0.00,Wunderground v.1.15,2013-09-07 14:15:00,
2013-09-07 07:20:00,60.7,44.9,29.77,North,6,0.0,0.0,56,0.00,,,0.00,Wunderground v.1.15,2013-09-07 14:20:00,
2013-09-07 07:25:00,60.9,45.1,29.77,North,6,0.0,0.0,56,0.00,,,0.00,Wunderground v.1.15,2013-09-07 14:25:00,
2013-09-07 07:30:00,62.5,45.6,29.78,North,5,0.0,0.0,54,0.00,,,0.00,Wunderground v.1.15,2013-09-07 14:30:00,
2013-09-07 07:35:00,63.0,45.6,29.78,North,5,0.0,0.0,53,0.00,,,0.00,Wunderground v.1.15,2013-09-07 14:35:00,
2013-09-07 07:45:00,63.1,45.7,29.78,North,5,0.0,0.0,53,0.00,,,0.00,Wunderground v.1.15,2013-09-07 14:45:00,
2013-09-07 07:50:00,63.3,45.9,29.78,North,5,0.0,0.0,53,0.00,,,0.00,Wunderground v.1.15,2013-09-07 14:50:00,
2013-09-07 07:55:00,63.7,46.2,29.78,North,5,0.0,0.0,53,0.00,,,0.00,Wunderground v.1.15,2013-09-07 14:55:00,
2013-09-07 08:00:00,63.8,46.3,29.79,North,5,0.0,0.0,53,0.00,,,0.00,Wunderground v.1.15,2013-09-07 15:00:00,
2013-09-07 08:06:00,64.1,46.1,29.79,North,5,0.0,0.0,52,0.00,,,0.00,Wunderground v.1.15,2013-09-07 15:06:00,
2013-09-07 08:15:00,65.2,47.1,29.79,North,6,0.0,0.0,52,0.00,,,0.00,Wunderground v.1.15,2013-09-07 15:15:00,
2013-09-07 08:20:00,66.0,46.8,29.79,North,6,0.0,0.0,50,0.00,,,0.00,Wunderground v.1.15,2013-09-07 15:20:00,
2013-09-07 08:25:00,66.9,47.1,29.79,NNE,30,0.0,0.0,49,0.00,,,0.00,Wunderground v.1.15,2013-09-07 15:25:00,
2013-09-07 08:30:00,68.0,47.0,29.79,NNE,30,0.0,0.0,47,0.00,,,0.00,Wunderground v.1.15,2013-09-07 15:30:00,
2013-09-07 08:36:00,69.6,47.3,29.80,NNE,30,0.0,0.0,45,0.00,,,0.00,Wunderground v.1.15,2013-09-07 15:36:00,
2013-09-07 08:45:00,72.5,48.1,29.79,NNE,30,0.0,0.0,42,0.00,,,0.00,Wunderground v.1.15,2013-09-07 15:45:00,
2013-09-07 08:50:00,72.8,47.7,29.79,NE,37,0.0,0.0,41,0.00,,,0.00,Wunderground v.1.15,2013-09-07 15:50:00,
2013-09-07 08:55:00,74.1,48.2,29.79,NE,37,0.0,0.0,40,0.00,,,0.00,Wunderground v.1.15,2013-09-07 15:55:00,
2013-09-07 09:00:00,74.9,48.3,29.80,NE,37,0.0,0.0,39,0.00,,,0.00,Wunderground v.1.15,2013-09-07 16:00:00,
2013-09-07 09:11:00,76.7,48.5,29.80,SE,141,0.0,0.0,37,0.00,,,0.00,Wunderground v.1.15,2013-09-07 16:11:00,
2013-09-07 09:20:00,77.5,47.7,29.80,East,91,1.0,1.0,35,0.00,,,0.00,Wunderground v.1.15,2013-09-07 16:20:00,
2013-09-07 09:25:00,78.0,48.1,29.80,SE,125,1.0,1.0,35,0.00,,,0.00,Wunderground v.1.15,2013-09-07 16:25:00,
2013-09-07 09:30:00,79.0,49.0,29.80,SSE,165,1.0,1.0,35,0.00,,,0.00,Wunderground v.1.15,2013-09-07 16:30:00,
2013-09-07 09:40:00,80.9,48.3,29.80,SSE,149,1.0,1.0,32,0.00,,,0.00,Wunderground v.1.15,2013-09-07 16:40:00,
2013-09-07 09:45:00,81.6,48.0,29.80,West,264,1.0,1.0,31,0.00,,,0.00,Wunderground v.1.15,2013-09-07 16:45:00,
2013-09-07 09:50:00,82.6,48.9,29.80,South,175,0.0,0.0,31,0.00,,,0.00,Wunderground v.1.15,2013-09-07 16:50:00,
2013-09-07 09:55:00,83.5,47.9,29.80,SSE,151,0.0,1.0,29,0.00,,,0.00,Wunderground v.1.15,2013-09-07 16:55:00,
2013-09-07 10:05:00,85.1,47.4,29.79,SE,129,1.0,1.0,27,0.00,,,0.00,Wunderground v.1.15,2013-09-07 17:05:00,
2013-09-07 10:11:00,85.8,44.8,29.79,West,259,0.0,0.0,24,0.00,,,0.00,Wunderground v.1.15,2013-09-07 17:11:00,
2013-09-07 10:20:00,86.3,44.1,29.79,WSW,252,1.0,1.0,23,0.00,,,0.00,Wunderground v.1.15,2013-09-07 17:20:00,
2013-09-07 10:25:00,86.4,45.3,29.79,West,266,1.0,1.0,24,0.00,,,0.00,Wunderground v.1.15,2013-09-07 17:25:00,
2013-09-07 10:35:00,86.7,44.5,29.79,WSW,239,1.0,1.0,23,0.00,,,0.00,Wunderground v.1.15,2013-09-07 17:35:00,
2013-09-07 10:40:00,87.2,44.9,29.79,West,266,1.0,1.0,23,0.00,,,0.00,Wunderground v.1.15,2013-09-07 17:40:00,
2013-09-07 10:45:00,87.6,45.2,29.79,WSW,240,1.0,1.0,23,0.00,,,0.00,Wunderground v.1.15,2013-09-07 17:45:00,
2013-09-07 10:50:00,88.5,46.0,29.79,SSE,156,1.0,2.0,23,0.00,,,0.00,Wunderground v.1.15,2013-09-07 17:50:00,
2013-09-07 10:55:00,89.2,46.6,29.79,SW,224,2.0,2.0,23,0.00,,,0.00,Wunderground v.1.15,2013-09-07 17:55:00,
2013-09-07 11:05:00,90.3,46.3,29.79,SE,124,2.0,3.0,22,0.00,,,0.00,Wunderground v.1.15,2013-09-07 18:05:00,
2013-09-07 11:11:00,90.8,46.7,29.79,WSW,255,2.0,2.0,22,0.00,,,0.00,Wunderground v.1.15,2013-09-07 18:11:00,
2013-09-07 11:20:00,90.8,46.7,29.79,South,183,2.0,3.0,22,0.00,,,0.00,Wunderground v.1.15,2013-09-07 18:20:00,
2013-09-07 11:25:00,91.2,47.0,29.79,South,171,2.0,3.0,22,0.00,,,0.00,Wunderground v.1.15,2013-09-07 18:25:00,
2013-09-07 11:35:00,91.0,46.9,29.79,SW,228,2.0,3.0,22,0.00,,,0.00,Wunderground v.1.15,2013-09-07 18:35:00,
2013-09-07 11:40:00,90.7,46.6,29.79,South,185,2.0,3.0,22,0.00,,,0.00,Wunderground v.1.15,2013-09-07 18:40:00,
2013-09-07 11:45:00,90.6,46.5,29.79,SE,128,2.0,3.0,22,0.00,,,0.00,Wunderground v.1.15,2013-09-07 18:45:00,
2013-09-07 11:50:00,90.9,46.8,29.79,South,172,3.0,3.0,22,0.00,,,0.00,Wunderground v.1.15,2013-09-07 18:50:00,
2013-09-07 11:55:00,90.9,46.8,29.78,South,174,3.0,3.0,22,0.00,,,0.00,Wunderground v.1.15,2013-09-07 18:55:00,
2013-09-07 12:05:00,91.3,47.1,29.78,SSW,212,2.0,4.0,22,0.00,,,0.00,Wunderground v.1.15,2013-09-07 19:05:00,
2013-09-07 12:11:00,91.5,47.3,29.78,West,268,2.0,2.0,22,0.00,,,0.00,Wunderground v.1.15,2013-09-07 19:11:00,
2013-09-07 12:20:00,92.2,46.6,29.78,SSW,193,4.0,4.0,21,0.00,,,0.00,Wunderground v.1.15,2013-09-07 19:20:00,
2013-09-07 12:30:00,92.5,46.9,29.78,SW,222,3.0,3.0,21,0.00,,,0.00,Wunderground v.1.15,2013-09-07 19:30:00,
2013-09-07 12:35:00,92.5,46.9,29.78,South,186,3.0,4.0,21,0.00,,,0.00,Wunderground v.1.15,2013-09-07 19:35:00,
2013-09-07 12:40:00,92.7,47.0,29.77,ESE,123,3.0,3.0,21,0.00,,,0.00,Wunderground v.1.15,2013-09-07 19:40:00,
2013-09-07 12:45:00,93.6,47.8,29.77,WSW,240,2.0,3.0,21,0.00,,,0.00,Wunderground v.1.15,2013-09-07 19:45:00,
2013-09-07 12:50:00,93.3,46.2,29.77,WSW,240,3.0,4.0,20,0.00,,,0.00,Wunderground v.1.15,2013-09-07 19:50:00,
2013-09-07 13:00:00,94.5,47.2,29.77,SE,134,3.0,3.0,20,0.00,,,0.00,Wunderground v.1.15,2013-09-07 20:00:00,
2013-09-07 13:05:00,94.5,47.2,29.77,SSW,208,2.0,3.0,20,0.00,,,0.00,Wunderground v.1.15,2013-09-07 20:05:00,
2013-09-07 13:11:00,94.5,45.9,29.76,SW,231,3.0,3.0,19,0.00,,,0.00,Wunderground v.1.15,2013-09-07 20:11:00,
2013-09-07 13:20:00,95.5,46.7,29.76,SSW,210,3.0,3.0,19,0.00,,,0.00,Wunderground v.1.15,2013-09-07 20:20:00,
2013-09-07 13:30:00,95.7,45.4,29.76,South,173,3.0,4.0,18,0.00,,,0.00,Wunderground v.1.15,2013-09-07 20:30:00,
2013-09-07 13:35:00,95.5,45.3,29.76,WSW,240,3.0,3.0,18,0.00,,,0.00,Wunderground v.1.15,2013-09-07 20:35:00,
2013-09-07 13:40:00,95.4,45.2,29.76,ESE,121,2.0,3.0,18,0.00,,,0.00,Wunderground v.1.15,2013-09-07 20:40:00,
2013-09-07 13:45:00,96.2,44.3,29.75,South,174,2.0,4.0,17,0.00,,,0.00,Wunderground v.1.15,2013-09-07 20:45:00,
2013-09-07 13:51:00,96.5,43.0,29.75,SSE,156,3.0,4.0,16,0.00,,,0.00,Wunderground v.1.15,2013-09-07 20:51:00,
2013-09-07 14:00:00,95.1,43.4,29.75,West,265,3.0,3.0,17,0.00,,,0.00,Wunderground v.1.15,2013-09-07 21:00:00,
2013-09-07 14:05:00,95.9,45.6,29.75,ESE,111,3.0,3.0,18,0.00,,,0.00,Wunderground v.1.15,2013-09-07 21:05:00,
2013-09-07 14:15:00,95.9,45.6,29.74,ENE,65,2.0,2.0,18,0.00,,,0.00,Wunderground v.1.15,2013-09-07 21:15:00,
2013-09-07 14:20:00,97.0,45.0,29.74,SSW,193,2.0,2.0,17,0.00,,,0.00,Wunderground v.1.15,2013-09-07 21:20:00,
2013-09-07 14:25:00,96.8,44.8,29.74,SSE,147,3.0,3.0,17,0.00,,,0.00,Wunderground v.1.15,2013-09-07 21:25:00,
2013-09-07 14:30:00,96.5,44.6,29.73,East,79,3.0,3.0,17,0.00,,,0.00,Wunderground v.1.15,2013-09-07 21:30:00,
2013-09-07 14:35:00,97.0,45.0,29.73,SSE,152,2.0,2.0,17,0.00,,,0.00,Wunderground v.1.15,2013-09-07 21:35:00,
2013-09-07 14:40:00,97.7,43.9,29.73,SW,236,2.0,3.0,16,0.00,,,0.00,Wunderground v.1.15,2013-09-07 21:40:00,
2013-09-07 14:45:00,98.0,44.2,29.73,West,264,2.0,3.0,16,0.00,,,0.00,Wunderground v.1.15,2013-09-07 21:45:00,
2013-09-07 14:55:00,97.3,43.6,29.73,ESE,102,3.0,3.0,16,0.00,,,0.00,Wunderground v.1.15,2013-09-07 21:55:00,
2013-09-07 15:00:00,97.9,44.1,29.72,ESE,107,2.0,5.0,16,0.00,,,0.00,Wunderground v.1.15,2013-09-07 22:00:00,
2013-09-07 15:05:00,97.2,43.5,29.73,ESE,115,2.0,5.0,16,0.00,,,0.00,Wunderground v.1.15,2013-09-07 22:05:00,
2013-09-07 15:15:00,97.9,44.1,29.73,SE,137,2.0,2.0,16,0.00,,,0.00,Wunderground v.1.15,2013-09-07 22:15:00,
2013-09-07 15:20:00,98.2,44.3,29.72,WNW,288,2.0,3.0,16,0.00,,,0.00,Wunderground v.1.15,2013-09-07 22:20:00,
2013-09-07 15:25:00,97.7,43.9,29.72,SW,216,3.0,3.0,16,0.00,,,0.00,Wunderground v.1.15,2013-09-07 22:25:00,
2013-09-07 15:30:00,97.6,43.8,29.72,South,190,3.0,3.0,16,0.00,,,0.00,Wunderground v.1.15,2013-09-07 22:30:00,
2013-09-07 15:36:00,97.8,44.0,29.72,SSE,158,3.0,3.0,16,0.00,,,0.00,Wunderground v.1.15,2013-09-07 22:36:00,
2013-09-07 15:45:00,98.0,44.2,29.72,SW,222,3.0,4.0,16,0.00,,,0.00,Wunderground v.1.15,2013-09-07 22:45:00,
2013-09-07 15:50:00,97.9,44.1,29.72,SSW,208,3.0,4.0,16,0.00,,,0.00,Wunderground v.1.15,2013-09-07 22:50:00,
2013-09-07 15:55:00,97.9,44.1,29.72,SSW,205,3.0,3.0,16,0.00,,,0.00,Wunderground v.1.15,2013-09-07 22:55:00,
2013-09-07 16:00:00,97.9,45.7,29.71,SW,224,2.0,3.0,17,0.00,,,0.00,Wunderground v.1.15,2013-09-07 23:00:00,
2013-09-07 16:11:00,98.3,44.4,29.71,ESE,108,2.0,2.0,16,0.00,,,0.00,Wunderground v.1.15,2013-09-07 23:11:00,
2013-09-07 16:20:00,97.8,42.3,29.71,South,174,3.0,3.0,15,0.00,,,0.00,Wunderground v.1.15,2013-09-07 23:20:00,
2013-09-07 16:25:00,97.8,42.3,29.71,NNW,335,3.0,3.0,15,0.00,,,0.00,Wunderground v.1.15,2013-09-07 23:25:00,
2013-09-07 16:31:00,98.7,43.0,29.70,South,184,1.0,4.0,15,0.00,,,0.00,Wunderground v.1.15,2013-09-07 23:31:00,
2013-09-07 16:40:00,97.3,40.1,29.70,West,266,4.0,4.0,14,0.00,,,0.00,Wunderground v.1.15,2013-09-07 23:40:00,
2013-09-07 16:45:00,97.7,38.5,29.70,WSW,245,4.0,4.0,13,0.00,,,0.00,Wunderground v.1.15,2013-09-07 23:45:00,
2013-09-07 16:50:00,97.4,36.3,29.70,WSW,241,4.0,6.0,12,0.00,,,0.00,Wunderground v.1.15,2013-09-07 23:50:00,
2013-09-07 16:55:00,97.2,33.9,29.70,SW,218,5.0,6.0,11,0.00,,,0.00,Wunderground v.1.15,2013-09-07 23:55:00,
2013-09-07 17:05:00,97.2,33.9,29.70,SW,231,5.0,6.0,11,0.00,,,0.00,Wunderground v.1.15,2013-09-08 00:05:00,
2013-09-07 17:11:00,97.3,31.6,29.70,WSW,255,4.0,4.0,10,0.00,,,0.00,Wunderground v.1.15,2013-09-08 00:11:00,
2013-09-07 17:20:00,96.8,31.3,29.70,SW,221,5.0,5.0,10,0.00,,,0.00,Wunderground v.1.15,2013-09-08 00:20:00,
2013-09-07 17:25:00,96.6,35.7,29.70,WSW,257,5.0,6.0,12,0.00,,,0.00,Wunderground v.1.15,2013-09-08 00:25:00,
2013-09-07 17:30:00,95.9,40.8,29.70,WSW,257,5.0,5.0,15,0.00,,,0.00,Wunderground v.1.15,2013-09-08 00:30:00,
2013-09-07 17:35:00,95.3,43.6,29.70,SW,218,5.0,6.0,17,0.00,,,0.00,Wunderground v.1.15,2013-09-08 00:35:00,
2013-09-07 17:40:00,94.3,44.3,29.70,SSW,199,6.0,9.0,18,0.00,,,0.00,Wunderground v.1.15,2013-09-08 00:40:00,
2013-09-07 17:45:00,93.6,45.1,29.70,WNW,287,6.0,9.0,19,0.00,,,0.00,Wunderground v.1.15,2013-09-08 00:45:00,
2013-09-07 17:50:00,93.6,45.1,29.70,West,260,5.0,5.0,19,0.00,,,0.00,Wunderground v.1.15,2013-09-08 00:50:00,
2013-09-07 18:00:00,93.7,46.6,29.70,SW,224,3.0,3.0,20,0.00,,,0.00,Wunderground v.1.15,2013-09-08 01:00:00,
2013-09-07 18:05:00,93.8,46.7,29.70,SW,221,3.0,3.0,20,0.00,,,0.00,Wunderground v.1.15,2013-09-08 01:05:00,
2013-09-07 18:15:00,93.1,47.4,29.70,SW,228,3.0,3.0,21,0.00,,,0.00,Wunderground v.1.15,2013-09-08 01:15:00,
2013-09-07 18:20:00,93.3,46.2,29.70,WSW,249,2.0,3.0,20,0.00,,,0.00,Wunderground v.1.15,2013-09-08 01:20:00,
2013-09-07 18:25:00,93.7,46.6,29.70,SSE,148,1.0,1.0,20,0.00,,,0.00,Wunderground v.1.15,2013-09-08 01:25:00,
2013-09-07 18:30:00,93.2,46.2,29.70,WNW,293,1.0,1.0,20,0.00,,,0.00,Wunderground v.1.15,2013-09-08 01:30:00,
2013-09-07 18:35:00,92.6,45.7,29.71,West,278,1.0,2.0,20,0.00,,,0.00,Wunderground v.1.15,2013-09-08 01:35:00,
2013-09-07 18:40:00,92.1,46.6,29.70,NNW,335,1.0,2.0,21,0.00,,,0.00,Wunderground v.1.15,2013-09-08 01:40:00,
2013-09-07 18:45:00,91.6,46.1,29.70,North,353,1.0,2.0,21,0.00,,,0.00,Wunderground v.1.15,2013-09-08 01:45:00,
2013-09-07 18:55:00,90.5,46.5,29.71,NE,46,1.0,1.0,22,0.00,,,0.00,Wunderground v.1.15,2013-09-08 01:55:00,
2013-09-07 19:00:00,90.1,46.1,29.71,WNW,287,1.0,1.0,22,0.00,,,0.00,Wunderground v.1.15,2013-09-08 02:00:00,
2013-09-07 19:05:00,89.2,45.4,29.71,NNW,335,1.0,1.0,22,0.00,,,0.00,Wunderground v.1.15,2013-09-08 02:05:00,
2013-09-07 19:15:00,87.6,46.3,29.71,NNE,23,1.0,1.0,24,0.00,,,0.00,Wunderground v.1.15,2013-09-08 02:15:00,
2013-09-07 19:20:00,86.8,45.7,29.71,NNW,333,1.0,2.0,24,0.00,,,0.00,Wunderground v.1.15,2013-09-08 02:20:00,
2013-09-07 19:25:00,86.8,45.7,29.71,NW,307,1.0,1.0,24,0.00,,,0.00,Wunderground v.1.15,2013-09-08 02:25:00,
2013-09-07 19:30:00,86.4,45.3,29.71,NW,317,2.0,2.0,24,0.00,,,0.00,Wunderground v.1.15,2013-09-08 02:30:00,
2013-09-07 19:35:00,86.0,46.1,29.71,North,355,1.0,1.0,25,0.00,,,0.00,Wunderground v.1.15,2013-09-08 02:35:00,
2013-09-07 19:40:00,85.8,45.9,29.71,NW,323,2.0,2.0,25,0.00,,,0.00,Wunderground v.1.15,2013-09-08 02:40:00,
2013-09-07 19:50:00,84.9,46.2,29.72,North,6,1.0,3.0,26,0.00,,,0.00,Wunderground v.1.15,2013-09-08 02:50:00,
2013-09-07 19:55:00,84.8,46.1,29.72,ENE,63,2.0,2.0,26,0.00,,,0.00,Wunderground v.1.15,2013-09-08 02:55:00,
2013-09-07 20:00:00,84.8,46.1,29.72,West,267,2.0,2.0,26,0.00,,,0.00,Wunderground v.1.15,2013-09-08 03:00:00,
2013-09-07 20:05:00,84.2,45.6,29.72,NNW,347,1.0,2.0,26,0.00,,,0.00,Wunderground v.1.15,2013-09-08 03:05:00,
2013-09-07 20:15:00,82.6,45.2,29.73,NNW,336,0.0,0.0,27,0.00,,,0.00,Wunderground v.1.15,2013-09-08 03:15:00,
2013-09-07 20:40:00,80.5,45.3,29.73,North,359,0.0,0.0,29,0.00,,,0.00,Wunderground v.1.15,2013-09-08 03:40:00,
2013-09-07 20:50:00,79.4,45.3,29.73,North,358,0.0,0.0,30,0.00,,,0.00,Wunderground v.1.15,2013-09-08 03:50:00,
2013-09-07 21:00:00,78.3,45.2,29.74,North,358,0.0,0.0,31,0.00,,,0.00,Wunderground v.1.15,2013-09-08 04:00:00,
2013-09-07 21:05:00,77.6,45.4,29.74,North,358,0.0,0.0,32,0.00,,,0.00,Wunderground v.1.15,2013-09-08 04:05:00,
2013-09-07 21:11:00,76.8,45.5,29.74,North,359,0.0,0.0,33,0.00,,,0.00,Wunderground v.1.15,2013-09-08 04:11:00,
2013-09-07 21:15:00,76.1,45.7,29.74,North,359,0.0,0.0,34,0.00,,,0.00,Wunderground v.1.15,2013-09-08 04:15:00,
2013-09-07 21:20:00,75.5,45.2,29.74,North,359,0.0,0.0,34,0.00,,,0.00,Wunderground v.1.15,2013-09-08 04:20:00,
2013-09-07 21:25:00,75.1,45.6,29.74,North,359,0.0,0.0,35,0.00,,,0.00,Wunderground v.1.15,2013-09-08 04:25:00,
2013-09-07 21:35:00,74.6,45.1,29.74,North,359,0.0,0.0,35,0.00,,,0.00,Wunderground v.1.15,2013-09-08 04:35:00,
2013-09-07 21:45:00,74.1,44.7,29.74,North,358,0.0,0.0,35,0.00,,,0.00,Wunderground v.1.15,2013-09-08 04:45:00,
2013-09-07 21:50:00,73.6,45.0,29.74,North,359,0.0,0.0,36,0.00,,,0.00,Wunderground v.1.15,2013-09-08 04:50:00,
2013-09-07 22:05:00,72.4,44.6,29.75,North,359,0.0,0.0,37,0.00,,,0.00,Wunderground v.1.15,2013-09-08 05:05:00,
2013-09-07 22:15:00,71.8,44.8,29.75,North,359,0.0,0.0,38,0.00,,,0.00,Wunderground v.1.15,2013-09-08 05:15:00,
2013-09-07 22:26:00,71.2,44.3,29.75,North,358,0.0,0.0,38,0.00,,,0.00,Wunderground v.1.15,2013-09-08 05:26:00,
2013-09-07 22:35:00,70.3,45.5,29.75,North,358,0.0,0.0,41,0.00,,,0.00,Wunderground v.1.15,2013-09-08 05:35:00,
2013-09-07 22:45:00,70.0,44.6,29.75,North,359,0.0,0.0,40,0.00,,,0.00,Wunderground v.1.15,2013-09-08 05:45:00,
2013-09-07 22:50:00,69.8,44.4,29.75,North,358,0.0,0.0,40,0.00,,,0.00,Wunderground v.1.15,2013-09-08 05:50:00,
2013-09-07 23:00:00,69.2,43.8,29.74,North,359,0.0,0.0,40,0.00,,,0.00,Wunderground v.1.15,2013-09-08 06:00:00,
2013-09-07 23:05:00,69.4,44.0,29.74,North,359,0.0,0.0,40,0.00,,,0.00,Wunderground v.1.15,2013-09-08 06:05:00,
2013-09-07 23:10:00,69.6,44.2,29.74,North,359,0.0,0.0,40,0.00,,,0.00,Wunderground v.1.15,2013-09-08 06:10:00,
2013-09-07 23:20:00,69.0,43.7,29.74,North,359,0.0,0.0,40,0.00,,,0.00,Wunderground v.1.15,2013-09-08 06:20:00,
2013-09-07 23:25:00,68.6,44.6,29.74,North,359,0.0,0.0,42,0.00,,,0.00,Wunderground v.1.15,2013-09-08 06:25:00,
2013-09-07 23:35:00,67.9,43.3,29.74,North,359,0.0,0.0,41,0.00,,,0.00,Wunderground v.1.15,2013-09-08 06:35:00,
2013-09-07 23:41:00,67.7,43.1,29.74,North,359,0.0,0.0,41,0.00,,,0.00,Wunderground v.1.15,2013-09-08 06:41:00,
2013-09-07 23:51:00,68.7,43.4,29.74,North,359,0.0,0.0,40,0.00,,,0.00,Wunderground v.1.15,2013-09-08 06:51:00,